owner,sensor,date,latitude,longitude,vertical_datum,wind_speed,wind_to_direction,wind_speed_of_gust,qcFlag 
NDBC,ioos:station:NOAA.NDBC:SMKF1:1,2013-09-03T22:00:00Z,24.6280,-81.1120,48.5,5.1,230.0,5.7,'1111122,1111122,1111122' 
NDBC,ioos:station:NOAA.NDBC:SMKF1:1,2013-09-03T23:00:00Z,24.6280,-81.1120,48.5,4.6,230.0,5.7,'1111122,1111122,1111122' 
NDBC,ioos:station:NOAA.NDBC:SMKF1:1,2013-09-04T00:00:00Z,24.6280,-81.1120,48.5,5.1,220.0,5.7,'1111122,1111122,1111122' 
NDBC,ioos:station:NOAA.NDBC:SMKF1:1,2013-09-04T01:00:00Z,24.6280,-81.1120,48.5,5.1,240.0,5.7,'1111122,1111122,1111122' 
NDBC,ioos:station:NOAA.NDBC:SMKF1:1,2013-09-04T02:00:00Z,24.6280,-81.1120,48.5,4.1,240.0,4.6,'1111122,1111122,1111122' 
NDBC,ioos:station:NOAA.NDBC:SMKF1:1,2013-09-04T03:00:00Z,24.6280,-81.1120,48.5,5.7,250.0,6.2,'1111122,1111122,1111122' 
NDBC,ioos:station:NOAA.NDBC:SMKF1:1,2013-09-04T04:00:00Z,24.6280,-81.1120,48.5,5.1,240.0,5.7,'1111122,1111122,1111122' 
NDBC,ioos:station:NOAA.NDBC:SMKF1:1,2013-09-04T05:00:00Z,24.6280,-81.1120,48.5,5.1,260.0,5.7,'1111122,1111122,1111122' 
NDBC,ioos:station:NOAA.NDBC:SMKF1:1,2013-09-04T06:00:00Z,24.6280,-81.1120,48.5,3.6,270.0,4.6,'1111122,1111122,1111122' 
NDBC,ioos:station:NOAA.NDBC:SMKF1:1,2013-09-04T07:00:00Z,24.6280,-81.1120,48.5,1.5,20.0,2.1,'1111122,1111122,1111122' 
NDBC,ioos:station:NOAA.NDBC:SMKF1:1,2013-09-04T08:00:00Z,24.6280,-81.1120,48.5,1.5,60.0,2.1,'1111122,1111122,1111122' 
NDBC,ioos:station:NOAA.NDBC:SMKF1:1,2013-09-04T09:00:00Z,24.6280,-81.1120,48.5,2.1,60.0,2.1,'1111122,1111122,1111122' 
NDBC,ioos:station:NOAA.NDBC:SMKF1:1,2013-09-04T10:00:00Z,24.6280,-81.1120,48.5,1.0,40.0,1.5,'1111122,1111122,1111122' 
NDBC,ioos:station:NOAA.NDBC:SMKF1:1,2013-09-04T11:00:00Z,24.6280,-81.1120,48.5,1.5,60.0,2.1,'1111122,1111122,1111122' 
NDBC,ioos:station:NOAA.NDBC:SMKF1:1,2013-09-04T12:00:00Z,24.6280,-81.1120,48.5,1.5,60.0,2.1,'1111122,1111122,1111122' 
NDBC,ioos:station:NOAA.NDBC:SMKF1:1,2013-09-04T13:00:00Z,24.6280,-81.1120,48.5,1.0,20.0,2.1,'1111122,1111122,1111122' 
NDBC,ioos:station:NOAA.NDBC:SMKF1:1,2013-09-04T14:00:00Z,24.6280,-81.1120,48.5,0.5,10.0,1.5,'1111122,1111122,1111122' 
NDBC,ioos:station:NOAA.NDBC:SMKF1:1,2013-09-04T15:00:00Z,24.6280,-81.1120,48.5,1.5,290.0,2.1,'1111122,1111122,1111122' 
NDBC,ioos:station:NOAA.NDBC:SMKF1:1,2013-09-04T16:00:00Z,24.6280,-81.1120,48.5,2.6,250.0,3.1,'1111122,1111122,1111122' 
NDBC,ioos:station:NOAA.NDBC:SMKF1:1,2013-09-04T17:00:00Z,24.6280,-81.1120,48.5,3.1,270.0,3.6,'1111122,1111122,1111122' 
NDBC,ioos:station:NOAA.NDBC:SMKF1:1,2013-09-04T18:00:00Z,24.6280,-81.1120,48.5,4.1,250.0,4.1,'1111122,1111122,1111122' 
NDBC,ioos:station:NOAA.NDBC:SMKF1:1,2013-09-04T19:00:00Z,24.6280,-81.1120,48.5,3.6,260.0,3.6,'1111122,1111122,1111122' 
NDBC,ioos:station:NOAA.NDBC:SMKF1:1,2013-09-04T20:00:00Z,24.6280,-81.1120,48.5,3.6,250.0,4.1,'1111122,1111122,1111122' 
NDBC,ioos:station:NOAA.NDBC:SMKF1:1,2013-09-04T21:00:00Z,24.6280,-81.1120,48.5,4.1,260.0,4.6,'1111122,1111122,1111122' 
NDBC,ioos:station:NOAA.NDBC:SMKF1:1,2013-09-04T22:00:00Z,24.6280,-81.1120,48.5,3.6,230.0,4.6,'1111122,1111122,1111122' 
NDBC,ioos:station:NOAA.NDBC:SMKF1:1,2013-09-04T23:00:00Z,24.6280,-81.1120,48.5,4.1,230.0,4.6,'1111122,1111122,1111122' 
NDBC,ioos:station:NOAA.NDBC:SMKF1:1,2013-09-05T00:00:00Z,24.6280,-81.1120,48.5,3.6,230.0,4.1,'1111122,1111122,1111122' 
NDBC,ioos:station:NOAA.NDBC:SMKF1:1,2013-09-05T01:00:00Z,24.6280,-81.1120,48.5,4.1,220.0,5.1,'1111122,1111122,1111122' 
NDBC,ioos:station:NOAA.NDBC:SMKF1:1,2013-09-05T02:00:00Z,24.6280,-81.1120,48.5,4.6,230.0,5.1,'1111122,1111122,1111122' 
NDBC,ioos:station:NOAA.NDBC:SMKF1:1,2013-09-05T03:00:00Z,24.6280,-81.1120,48.5,3.6,240.0,4.1,'1111122,1111122,1111122' 
NDBC,ioos:station:NOAA.NDBC:SMKF1:1,2013-09-05T04:00:00Z,24.6280,-81.1120,48.5,2.1,280.0,2.6,'1111122,1111122,1111122' 
NDBC,ioos:station:NOAA.NDBC:SMKF1:1,2013-09-05T05:00:00Z,24.6280,-81.1120,48.5,1.5,350.0,2.6,'1111122,1111122,1111122' 
NDBC,ioos:station:NOAA.NDBC:SMKF1:1,2013-09-05T06:00:00Z,24.6280,-81.1120,48.5,2.1,60.0,2.6,'1111122,1111122,1111122' 
NDBC,ioos:station:NOAA.NDBC:SMKF1:1,2013-09-05T07:00:00Z,24.6280,-81.1120,48.5,3.6,100.0,4.6,'1111122,1111122,1111122' 
NDBC,ioos:station:NOAA.NDBC:SMKF1:1,2013-09-05T08:00:00Z,24.6280,-81.1120,48.5,1.5,90.0,2.6,'1111122,1111122,1111122' 
NDBC,ioos:station:NOAA.NDBC:SMKF1:1,2013-09-05T09:00:00Z,24.6280,-81.1120,48.5,1.5,60.0,2.1,'1111122,1111122,1111122' 
NDBC,ioos:station:NOAA.NDBC:SMKF1:1,2013-09-05T10:00:00Z,24.6280,-81.1120,48.5,1.5,40.0,2.1,'1111122,1111122,1111122' 
NDBC,ioos:station:NOAA.NDBC:SMKF1:1,2013-09-05T11:00:00Z,24.6280,-81.1120,48.5,2.1,30.0,2.6,'1111122,1111122,1111122' 
NDBC,ioos:station:NOAA.NDBC:SMKF1:1,2013-09-05T12:00:00Z,24.6280,-81.1120,48.5,1.0,50.0,1.5,'1111122,1111122,1111122' 
NDBC,ioos:station:NOAA.NDBC:SMKF1:1,2013-09-05T13:00:00Z,24.6280,-81.1120,48.5,1.0,150.0,1.5,'1111122,1111122,1111122' 
NDBC,ioos:station:NOAA.NDBC:SMKF1:1,2013-09-05T14:00:00Z,24.6280,-81.1120,48.5,1.5,100.0,2.1,'1111122,1111122,1111122' 
NDBC,ioos:station:NOAA.NDBC:SMKF1:1,2013-09-05T15:00:00Z,24.6280,-81.1120,48.5,1.0,80.0,1.0,'1111122,1111122,1111122' 
NDBC,ioos:station:NOAA.NDBC:SMKF1:1,2013-09-05T16:00:00Z,24.6280,-81.1120,48.5,2.6,240.0,3.1,'1111122,1111122,1111122' 
NDBC,ioos:station:NOAA.NDBC:SMKF1:1,2013-09-05T17:00:00Z,24.6280,-81.1120,48.5,3.1,220.0,3.6,'1111122,1111122,1111122' 
NDBC,ioos:station:NOAA.NDBC:SMKF1:1,2013-09-05T18:00:00Z,24.6280,-81.1120,48.5,3.6,230.0,4.1,'1111122,1111122,1111122' 
NDBC,ioos:station:NOAA.NDBC:SMKF1:1,2013-09-05T19:00:00Z,24.6280,-81.1120,48.5,4.1,220.0,4.6,'1111122,1111122,1111122' 
NDBC,ioos:station:NOAA.NDBC:SMKF1:1,2013-09-05T20:00:00Z,24.6280,-81.1120,48.5,4.1,240.0,4.6,'1111122,1111122,1111122' 
NDBC,ioos:station:NOAA.NDBC:SMKF1:1,2013-09-05T21:00:00Z,24.6280,-81.1120,48.5,3.6,240.0,4.1,'1111122,1111122,1111122' 
NDBC,ioos:station:NOAA.NDBC:SMKF1:1,2013-09-05T22:00:00Z,24.6280,-81.1120,48.5,4.1,240.0,4.6,'1111122,1111122,1111122' 
NDBC,ioos:station:NOAA.NDBC:SMKF1:1,2013-09-06T00:00:00Z,24.6280,-81.1120,48.5,2.6,270.0,3.1,'1111122,1111122,1111122' 
NDBC,ioos:station:NOAA.NDBC:SMKF1:1,2013-09-06T01:00:00Z,24.6280,-81.1120,48.5,2.1,270.0,3.1,'1111122,1111122,1111122' 
NDBC,ioos:station:NOAA.NDBC:SMKF1:1,2013-09-06T02:00:00Z,24.6280,-81.1120,48.5,3.6,250.0,4.1,'1111122,1111122,1111122' 
NDBC,ioos:station:NOAA.NDBC:SMKF1:1,2013-09-06T03:00:00Z,24.6280,-81.1120,48.5,3.1,280.0,3.1,'1111122,1111122,1111122' 
NDBC,ioos:station:NOAA.NDBC:SMKF1:1,2013-09-06T04:00:00Z,24.6280,-81.1120,48.5,3.1,300.0,4.6,'1111122,1111122,1111122' 
NDBC,ioos:station:NOAA.NDBC:SMKF1:1,2013-09-06T06:00:00Z,24.6280,-81.1120,48.5,1.0,10.0,1.0,'1111122,1111122,1111122' 
NDBC,ioos:station:NOAA.NDBC:SMKF1:1,2013-09-06T07:00:00Z,24.6280,-81.1120,48.5,2.1,20.0,2.6,'1111122,1111122,1111122' 
NDBC,ioos:station:NOAA.NDBC:SMKF1:1,2013-09-06T08:00:00Z,24.6280,-81.1120,48.5,1.0,40.0,1.0,'1111122,1111122,1111122' 
NDBC,ioos:station:NOAA.NDBC:SMKF1:1,2013-09-06T09:00:00Z,24.6280,-81.1120,48.5,2.1,30.0,2.6,'1111122,1111122,1111122' 
NDBC,ioos:station:NOAA.NDBC:SMKF1:1,2013-09-06T10:00:00Z,24.6280,-81.1120,48.5,1.0,20.0,1.5,'1111122,1111122,1111122' 
NDBC,ioos:station:NOAA.NDBC:SMKF1:1,2013-09-06T11:00:00Z,24.6280,-81.1120,48.5,1.5,70.0,2.1,'1111122,1111122,1111122' 
NDBC,ioos:station:NOAA.NDBC:SMKF1:1,2013-09-06T12:00:00Z,24.6280,-81.1120,48.5,0.0,-9999.0,0.5,'1114422,1111122,1111122' 
NDBC,ioos:station:NOAA.NDBC:SMKF1:1,2013-09-06T13:00:00Z,24.6280,-81.1120,48.5,0.0,-9999.0,0.5,'1114422,1111122,1111122' 
NDBC,ioos:station:NOAA.NDBC:SMKF1:1,2013-09-06T14:00:00Z,24.6280,-81.1120,48.5,1.5,220.0,1.5,'1111122,1111122,1111122' 
NDBC,ioos:station:NOAA.NDBC:SMKF1:1,2013-09-06T15:00:00Z,24.6280,-81.1120,48.5,1.5,260.0,2.1,'1111122,1111122,1111122' 
NDBC,ioos:station:NOAA.NDBC:SMKF1:1,2013-09-06T16:00:00Z,24.6280,-81.1120,48.5,2.6,250.0,2.6,'1111122,1111122,1111122' 
NDBC,ioos:station:NOAA.NDBC:SMKF1:1,2013-09-06T17:00:00Z,24.6280,-81.1120,48.5,3.6,260.0,4.1,'1111122,1111122,1111122' 
NDBC,ioos:station:NOAA.NDBC:SMKF1:1,2013-09-06T18:00:00Z,24.6280,-81.1120,48.5,4.1,230.0,4.6,'1111122,1111122,1111122' 
NDBC,ioos:station:NOAA.NDBC:SMKF1:1,2013-09-06T19:00:00Z,24.6280,-81.1120,48.5,4.1,250.0,4.6,'1111122,1111122,1111122' 
NDBC,ioos:station:NOAA.NDBC:SMKF1:1,2013-09-06T20:00:00Z,24.6280,-81.1120,48.5,1.5,350.0,2.6,'1111122,1111122,1111122' 
NDBC,ioos:station:NOAA.NDBC:SMKF1:1,2013-09-06T21:00:00Z,24.6280,-81.1120,48.5,3.1,310.0,4.1,'1111122,1111122,1111122' 
NDBC,ioos:station:NOAA.NDBC:SMKF1:1,2013-09-06T22:00:00Z,24.6280,-81.1120,48.5,1.5,340.0,1.5,'1111122,1111122,1111122' 
NDBC,ioos:station:NOAA.NDBC:SMKF1:1,2013-09-06T23:00:00Z,24.6280,-81.1120,48.5,8.2,90.0,11.3,'1111122,1111122,1111122' 
NDBC,ioos:station:NOAA.NDBC:SMKF1:1,2013-09-07T00:00:00Z,24.6280,-81.1120,48.5,6.2,80.0,7.2,'1111122,1111122,1111122' 
NDBC,ioos:station:NOAA.NDBC:SMKF1:1,2013-09-07T02:00:00Z,24.6280,-81.1120,48.5,4.6,210.0,6.2,'1111122,1111122,1111122' 
NDBC,ioos:station:NOAA.NDBC:SMKF1:1,2013-09-07T04:00:00Z,24.6280,-81.1120,48.5,1.5,40.0,2.1,'1111122,1111122,1111122' 
NDBC,ioos:station:NOAA.NDBC:SMKF1:1,2013-09-07T05:00:00Z,24.6280,-81.1120,48.5,2.1,60.0,3.1,'1111122,1111122,1111122' 
NDBC,ioos:station:NOAA.NDBC:SMKF1:1,2013-09-07T06:00:00Z,24.6280,-81.1120,48.5,2.1,40.0,3.1,'1111122,1111122,1111122' 
NDBC,ioos:station:NOAA.NDBC:SMKF1:1,2013-09-07T07:00:00Z,24.6280,-81.1120,48.5,2.1,60.0,2.6,'1111122,1111122,1111122' 
NDBC,ioos:station:NOAA.NDBC:SMKF1:1,2013-09-07T08:00:00Z,24.6280,-81.1120,48.5,2.1,40.0,3.1,'1111122,1111122,1111122' 
NDBC,ioos:station:NOAA.NDBC:SMKF1:1,2013-09-07T09:00:00Z,24.6280,-81.1120,48.5,2.1,50.0,3.1,'1111122,1111122,1111122' 
NDBC,ioos:station:NOAA.NDBC:SMKF1:1,2013-09-07T10:00:00Z,24.6280,-81.1120,48.5,2.6,60.0,4.1,'1111122,1111122,1111122' 
NDBC,ioos:station:NOAA.NDBC:SMKF1:1,2013-09-07T11:00:00Z,24.6280,-81.1120,48.5,2.6,60.0,3.6,'1111122,1111122,1111122' 
NDBC,ioos:station:NOAA.NDBC:SMKF1:1,2013-09-07T12:00:00Z,24.6280,-81.1120,48.5,2.6,40.0,3.6,'1111122,1111122,1111122' 
NDBC,ioos:station:NOAA.NDBC:SMKF1:1,2013-09-07T13:00:00Z,24.6280,-81.1120,48.5,2.6,40.0,4.1,'1111122,1111122,1111122' 
NDBC,ioos:station:NOAA.NDBC:SMKF1:1,2013-09-07T14:00:00Z,24.6280,-81.1120,48.5,2.1,50.0,3.6,'1111122,1111122,1111122' 
NDBC,ioos:station:NOAA.NDBC:SMKF1:1,2013-09-07T15:00:00Z,24.6280,-81.1120,48.5,3.6,50.0,5.1,'1111122,1111122,1111122' 
NDBC,ioos:station:NOAA.NDBC:SMKF1:1,2013-09-07T16:00:00Z,24.6280,-81.1120,48.5,3.1,40.0,5.1,'1111122,1111122,1111122' 
NDBC,ioos:station:NOAA.NDBC:SMKF1:1,2013-09-07T17:00:00Z,24.6280,-81.1120,48.5,3.1,40.0,5.1,'1111122,1111122,1111122' 
NDBC,ioos:station:NOAA.NDBC:SMKF1:1,2013-09-07T18:00:00Z,24.6280,-81.1120,48.5,2.6,70.0,4.6,'1111122,1111122,1111122' 
NDBC,ioos:station:NOAA.NDBC:SMKF1:1,2013-09-07T19:00:00Z,24.6280,-81.1120,48.5,2.6,50.0,3.1,'1111122,1111122,1111122' 
NDBC,ioos:station:NOAA.NDBC:SMKF1:1,2013-09-07T20:00:00Z,24.6280,-81.1120,48.5,3.1,50.0,4.6,'1111122,1111122,1111122' 
NDBC,ioos:station:NOAA.NDBC:SMKF1:1,2013-09-07T21:00:00Z,24.6280,-81.1120,48.5,3.1,10.0,4.6,'1111122,1111122,1111122' 
NDBC,ioos:station:NOAA.NDBC:SMKF1:1,2013-09-07T22:00:00Z,24.6280,-81.1120,48.5,3.6,30.0,4.6,'1111122,1111122,1111122' 
NDBC,ioos:station:NOAA.NDBC:SMKF1:1,2013-09-07T23:00:00Z,24.6280,-81.1120,48.5,2.1,20.0,2.6,'1111122,1111122,1111122' 
NDBC,ioos:station:NOAA.NDBC:SMKF1:1,2013-09-08T00:00:00Z,24.6280,-81.1120,48.5,1.0,30.0,1.0,'1111122,1111122,1111122' 
NDBC,ioos:station:NOAA.NDBC:SMKF1:1,2013-09-08T01:00:00Z,24.6280,-81.1120,48.5,1.0,40.0,1.0,'1111122,1111122,1111122' 
NDBC,ioos:station:NOAA.NDBC:SMKF1:1,2013-09-08T02:00:00Z,24.6280,-81.1120,48.5,1.5,20.0,2.1,'1111122,1111122,1111122' 
NDBC,ioos:station:NOAA.NDBC:SMKF1:1,2013-09-08T03:00:00Z,24.6280,-81.1120,48.5,1.0,40.0,2.1,'1111122,1111122,1111122' 
NDBC,ioos:station:NOAA.NDBC:SMKF1:1,2013-09-08T04:00:00Z,24.6280,-81.1120,48.5,1.5,50.0,2.6,'1111122,1111122,1111122' 
NDBC,ioos:station:NOAA.NDBC:SMKF1:1,2013-09-08T05:00:00Z,24.6280,-81.1120,48.5,3.1,60.0,3.6,'1111122,1111122,1111122' 
NDBC,ioos:station:NOAA.NDBC:SMKF1:1,2013-09-08T06:00:00Z,24.6280,-81.1120,48.5,3.6,80.0,3.6,'1111122,1111122,1111122' 
NDBC,ioos:station:NOAA.NDBC:SMKF1:1,2013-09-08T07:00:00Z,24.6280,-81.1120,48.5,3.1,70.0,3.6,'1111122,1111122,1111122' 
NDBC,ioos:station:NOAA.NDBC:SMKF1:1,2013-09-08T08:00:00Z,24.6280,-81.1120,48.5,1.5,70.0,2.1,'1111122,1111122,1111122' 
NDBC,ioos:station:NOAA.NDBC:SMKF1:1,2013-09-08T09:00:00Z,24.6280,-81.1120,48.5,2.1,50.0,2.6,'1111122,1111122,1111122' 
NDBC,ioos:station:NOAA.NDBC:SMKF1:1,2013-09-08T10:00:00Z,24.6280,-81.1120,48.5,2.1,60.0,2.6,'1111122,1111122,1111122' 
NDBC,ioos:station:NOAA.NDBC:SMKF1:1,2013-09-08T11:00:00Z,24.6280,-81.1120,48.5,1.5,50.0,2.1,'1111122,1111122,1111122' 
NDBC,ioos:station:NOAA.NDBC:SMKF1:1,2013-09-08T12:00:00Z,24.6280,-81.1120,48.5,2.6,50.0,3.6,'1111122,1111122,1111122' 
NDBC,ioos:station:NOAA.NDBC:SMKF1:1,2013-09-08T13:00:00Z,24.6280,-81.1120,48.5,2.1,50.0,3.1,'1111122,1111122,1111122' 
NDBC,ioos:station:NOAA.NDBC:SMKF1:1,2013-09-08T14:00:00Z,24.6280,-81.1120,48.5,3.1,70.0,3.6,'1111122,1111122,1111122' 
NDBC,ioos:station:NOAA.NDBC:SMKF1:1,2013-09-08T15:00:00Z,24.6280,-81.1120,48.5,1.5,50.0,2.1,'1111122,1111122,1111122' 
NDBC,ioos:station:NOAA.NDBC:SMKF1:1,2013-09-08T16:00:00Z,24.6280,-81.1120,48.5,3.6,20.0,4.6,'1111122,1111122,1111122' 
NDBC,ioos:station:NOAA.NDBC:SMKF1:1,2013-09-08T17:00:00Z,24.6280,-81.1120,48.5,1.0,50.0,1.5,'1111122,1111122,1111122' 
NDBC,ioos:station:NOAA.NDBC:SMKF1:1,2013-09-08T18:00:00Z,24.6280,-81.1120,48.5,2.1,30.0,2.6,'1111122,1111122,1111122' 
NDBC,ioos:station:NOAA.NDBC:SMKF1:1,2013-09-08T19:00:00Z,24.6280,-81.1120,48.5,2.1,10.0,3.6,'1111122,1111122,1111122' 
NDBC,ioos:station:NOAA.NDBC:SMKF1:1,2013-09-08T20:00:00Z,24.6280,-81.1120,48.5,2.6,80.0,3.6,'1111122,1111122,1111122' 
NDBC,ioos:station:NOAA.NDBC:SMKF1:1,2013-09-08T21:00:00Z,24.6280,-81.1120,48.5,3.1,280.0,5.1,'1111122,1111122,1111122' 
NDBC,ioos:station:NOAA.NDBC:SMKF1:1,2013-09-08T22:00:00Z,24.6280,-81.1120,48.5,4.1,300.0,5.1,'1111122,1111122,1111122' 
NDBC,ioos:station:NOAA.NDBC:SMKF1:1,2013-09-08T23:00:00Z,24.6280,-81.1120,48.5,2.1,330.0,3.6,'1111122,1111122,1111122' 
NDBC,ioos:station:NOAA.NDBC:SMKF1:1,2013-09-09T00:00:00Z,24.6280,-81.1120,48.5,0.5,20.0,1.0,'1111122,1111122,1111122' 
NDBC,ioos:station:NOAA.NDBC:SMKF1:1,2013-09-09T01:00:00Z,24.6280,-81.1120,48.5,1.0,20.0,1.5,'1111122,1111122,1111122' 
NDBC,ioos:station:NOAA.NDBC:SMKF1:1,2013-09-09T02:00:00Z,24.6280,-81.1120,48.5,0.5,60.0,1.0,'1111122,1111122,1111122' 
NDBC,ioos:station:NOAA.NDBC:SMKF1:1,2013-09-09T03:00:00Z,24.6280,-81.1120,48.5,0.5,30.0,1.0,'1111122,1111122,1111122' 
NDBC,ioos:station:NOAA.NDBC:SMKF1:1,2013-09-09T04:00:00Z,24.6280,-81.1120,48.5,0.0,-9999.0,0.5,'1114422,1111122,1111122' 
NDBC,ioos:station:NOAA.NDBC:SMKF1:1,2013-09-09T05:00:00Z,24.6280,-81.1120,48.5,1.0,50.0,1.5,'1111122,1111122,1111122' 
NDBC,ioos:station:NOAA.NDBC:SMKF1:1,2013-09-09T06:00:00Z,24.6280,-81.1120,48.5,2.6,90.0,3.1,'1111122,1111122,1111122' 
NDBC,ioos:station:NOAA.NDBC:SMKF1:1,2013-09-09T07:00:00Z,24.6280,-81.1120,48.5,2.6,90.0,3.1,'1111122,1111122,1111122' 
NDBC,ioos:station:NOAA.NDBC:SMKF1:1,2013-09-09T08:00:00Z,24.6280,-81.1120,48.5,2.1,90.0,2.6,'1111122,1111122,1111122' 
NDBC,ioos:station:NOAA.NDBC:SMKF1:1,2013-09-09T09:00:00Z,24.6280,-81.1120,48.5,2.1,80.0,2.6,'1111122,1111122,1111122' 
NDBC,ioos:station:NOAA.NDBC:SMKF1:1,2013-09-09T10:00:00Z,24.6280,-81.1120,48.5,1.5,90.0,2.1,'1111122,1111122,1111122' 
NDBC,ioos:station:NOAA.NDBC:SMKF1:1,2013-09-09T11:00:00Z,24.6280,-81.1120,48.5,2.1,80.0,2.1,'1111122,1111122,1111122' 
NDBC,ioos:station:NOAA.NDBC:SMKF1:1,2013-09-09T12:00:00Z,24.6280,-81.1120,48.5,2.1,70.0,2.6,'1111122,1111122,1111122' 
NDBC,ioos:station:NOAA.NDBC:SMKF1:1,2013-09-09T13:00:00Z,24.6280,-81.1120,48.5,1.0,70.0,1.5,'1111122,1111122,1111122' 
NDBC,ioos:station:NOAA.NDBC:SMKF1:1,2013-09-09T14:00:00Z,24.6280,-81.1120,48.5,0.5,120.0,1.0,'1111122,1111122,1111122' 
NDBC,ioos:station:NOAA.NDBC:SMKF1:1,2013-09-09T15:00:00Z,24.6280,-81.1120,48.5,1.0,160.0,2.1,'1111122,1111122,1111122' 
NDBC,ioos:station:NOAA.NDBC:SMKF1:1,2013-09-09T16:00:00Z,24.6280,-81.1120,48.5,3.6,220.0,4.1,'1111122,1111122,1111122' 
NDBC,ioos:station:NOAA.NDBC:SMKF1:1,2013-09-09T17:00:00Z,24.6280,-81.1120,48.5,3.1,220.0,3.6,'1111122,1111122,1111122' 
NDBC,ioos:station:NOAA.NDBC:SMKF1:1,2013-09-09T18:00:00Z,24.6280,-81.1120,48.5,3.6,230.0,4.1,'1111122,1111122,1111122' 
NDBC,ioos:station:NOAA.NDBC:SMKF1:1,2013-09-09T19:00:00Z,24.6280,-81.1120,48.5,3.6,250.0,4.6,'1111122,1111122,1111122' 
NDBC,ioos:station:NOAA.NDBC:SMKF1:1,2013-09-09T20:00:00Z,24.6280,-81.1120,48.5,3.6,260.0,4.1,'1111122,1111122,1111122' 
NDBC,ioos:station:NOAA.NDBC:SMKF1:1,2013-09-09T21:00:00Z,24.6280,-81.1120,48.5,3.1,270.0,3.6,'1111122,1111122,1111122' 
NDBC,ioos:station:NOAA.NDBC:SMKF1:1,2013-09-09T22:00:00Z,24.6280,-81.1120,48.5,3.1,300.0,3.6,'1111122,1111122,1111122' 
NDBC,ioos:station:NOAA.NDBC:SMKF1:1,2013-09-09T23:00:00Z,24.6280,-81.1120,48.5,1.0,360.0,1.5,'1111122,1111122,1111122' 
NDBC,ioos:station:NOAA.NDBC:SMKF1:1,2013-09-10T01:00:00Z,24.6280,-81.1120,48.5,2.6,70.0,3.1,'1111122,1111122,1111122' 
NDBC,ioos:station:NOAA.NDBC:SMKF1:1,2013-09-10T02:00:00Z,24.6280,-81.1120,48.5,4.1,80.0,4.6,'1111122,1111122,1111122' 
NDBC,ioos:station:NOAA.NDBC:SMKF1:1,2013-09-10T03:00:00Z,24.6280,-81.1120,48.5,4.6,80.0,5.1,'1111122,1111122,1111122' 
NDBC,ioos:station:NOAA.NDBC:SMKF1:1,2013-09-10T04:00:00Z,24.6280,-81.1120,48.5,4.1,70.0,4.6,'1111122,1111122,1111122' 
NDBC,ioos:station:NOAA.NDBC:SMKF1:1,2013-09-10T05:00:00Z,24.6280,-81.1120,48.5,2.6,60.0,4.1,'1111122,1111122,1111122' 
NDBC,ioos:station:NOAA.NDBC:SMKF1:1,2013-09-10T06:00:00Z,24.6280,-81.1120,48.5,3.1,60.0,4.1,'1111122,1111122,1111122' 
NDBC,ioos:station:NOAA.NDBC:SMKF1:1,2013-09-10T07:00:00Z,24.6280,-81.1120,48.5,3.1,80.0,3.6,'1111122,1111122,1111122' 
NDBC,ioos:station:NOAA.NDBC:SMKF1:1,2013-09-10T08:00:00Z,24.6280,-81.1120,48.5,2.6,60.0,3.6,'1111122,1111122,1111122' 
NDBC,ioos:station:NOAA.NDBC:SMKF1:1,2013-09-10T09:00:00Z,24.6280,-81.1120,48.5,2.6,50.0,3.6,'1111122,1111122,1111122' 
NDBC,ioos:station:NOAA.NDBC:SMKF1:1,2013-09-10T10:00:00Z,24.6280,-81.1120,48.5,2.1,40.0,3.1,'1111122,1111122,1111122' 
NDBC,ioos:station:NOAA.NDBC:SMKF1:1,2013-09-10T11:00:00Z,24.6280,-81.1120,48.5,2.1,50.0,3.6,'1111122,1111122,1111122' 
NDBC,ioos:station:NOAA.NDBC:SMKF1:1,2013-09-10T12:00:00Z,24.6280,-81.1120,48.5,2.1,50.0,3.1,'1111122,1111122,1111122' 
NDBC,ioos:station:NOAA.NDBC:SMKF1:1,2013-09-10T13:00:00Z,24.6280,-81.1120,48.5,3.6,70.0,4.6,'1111122,1111122,1111122' 
NDBC,ioos:station:NOAA.NDBC:SMKF1:1,2013-09-10T14:00:00Z,24.6280,-81.1120,48.5,4.6,70.0,6.2,'1111122,1111122,1111122' 
NDBC,ioos:station:NOAA.NDBC:SMKF1:1,2013-09-10T15:00:00Z,24.6280,-81.1120,48.5,3.6,70.0,5.1,'1111122,1111122,1111122' 
NDBC,ioos:station:NOAA.NDBC:SMKF1:1,2013-09-10T16:00:00Z,24.6280,-81.1120,48.5,3.1,90.0,4.1,'1111122,1111122,1111122' 
NDBC,ioos:station:NOAA.NDBC:SMKF1:1,2013-09-10T17:00:00Z,24.6280,-81.1120,48.5,5.7,80.0,6.7,'1111122,1111122,1111122' 
NDBC,ioos:station:NOAA.NDBC:SMKF1:1,2013-09-10T18:00:00Z,24.6280,-81.1120,48.5,5.7,70.0,8.2,'1111122,1111122,1111122' 
NDBC,ioos:station:NOAA.NDBC:SMKF1:1,2013-09-10T20:00:00Z,24.6280,-81.1120,48.5,2.1,90.0,3.1,'1111122,1111122,1111122' 
NDBC,ioos:station:NOAA.NDBC:SMKF1:1,2013-09-10T21:00:00Z,24.6280,-81.1120,48.5,4.1,50.0,6.7,'1111122,1111122,1111122' 
NDBC,ioos:station:NOAA.NDBC:SMKF1:1,2013-09-10T22:00:00Z,24.6280,-81.1120,48.5,4.6,60.0,6.2,'1111122,1111122,1111122' 
NDBC,ioos:station:NOAA.NDBC:SMKF1:1,2013-09-11T00:00:00Z,24.6280,-81.1120,48.5,1.5,60.0,2.1,'1111122,1111122,1111122' 
NDBC,ioos:station:NOAA.NDBC:SMKF1:1,2013-09-11T02:00:00Z,24.6280,-81.1120,48.5,4.1,70.0,4.6,'1111122,1111122,1111122' 
NDBC,ioos:station:NOAA.NDBC:SMKF1:1,2013-09-11T03:00:00Z,24.6280,-81.1120,48.5,3.1,60.0,3.6,'1111122,1111122,1111122' 
NDBC,ioos:station:NOAA.NDBC:SMKF1:1,2013-09-11T04:00:00Z,24.6280,-81.1120,48.5,2.6,50.0,3.6,'1111122,1111122,1111122' 
NDBC,ioos:station:NOAA.NDBC:SMKF1:1,2013-09-11T05:00:00Z,24.6280,-81.1120,48.5,2.1,40.0,2.6,'1111122,1111122,1111122' 
NDBC,ioos:station:NOAA.NDBC:SMKF1:1,2013-09-11T06:00:00Z,24.6280,-81.1120,48.5,3.1,50.0,4.1,'1111122,1111122,1111122' 
NDBC,ioos:station:NOAA.NDBC:SMKF1:1,2013-09-11T07:00:00Z,24.6280,-81.1120,48.5,3.1,60.0,4.6,'1111122,1111122,1111122' 
NDBC,ioos:station:NOAA.NDBC:SMKF1:1,2013-09-11T08:00:00Z,24.6280,-81.1120,48.5,3.1,60.0,4.6,'1111122,1111122,1111122' 
NDBC,ioos:station:NOAA.NDBC:SMKF1:1,2013-09-11T09:00:00Z,24.6280,-81.1120,48.5,3.1,60.0,4.6,'1111122,1111122,1111122' 
NDBC,ioos:station:NOAA.NDBC:SMKF1:1,2013-09-11T11:00:00Z,24.6280,-81.1120,48.5,2.1,40.0,3.1,'1111122,1111122,1111122' 
NDBC,ioos:station:NOAA.NDBC:SMKF1:1,2013-09-11T12:00:00Z,24.6280,-81.1120,48.5,2.6,50.0,4.1,'1111122,1111122,1111122' 
NDBC,ioos:station:NOAA.NDBC:SMKF1:1,2013-09-11T13:00:00Z,24.6280,-81.1120,48.5,4.1,70.0,5.1,'1111122,1111122,1111122' 
NDBC,ioos:station:NOAA.NDBC:SMKF1:1,2013-09-11T14:00:00Z,24.6280,-81.1120,48.5,6.7,70.0,7.7,'1111122,1111122,1111122' 
NDBC,ioos:station:NOAA.NDBC:SMKF1:1,2013-09-11T15:00:00Z,24.6280,-81.1120,48.5,3.6,40.0,5.1,'1111122,1111122,1111122' 
NDBC,ioos:station:NOAA.NDBC:SMKF1:1,2013-09-11T16:00:00Z,24.6280,-81.1120,48.5,4.6,60.0,6.7,'1111122,1111122,1111122' 
NDBC,ioos:station:NOAA.NDBC:SMKF1:1,2013-09-11T17:00:00Z,24.6280,-81.1120,48.5,4.1,60.0,5.1,'1111122,1111122,1111122' 
NDBC,ioos:station:NOAA.NDBC:SMKF1:1,2013-09-11T18:00:00Z,24.6280,-81.1120,48.5,6.2,90.0,7.7,'1111122,1111122,1111122' 
NDBC,ioos:station:NOAA.NDBC:SMKF1:1,2013-09-11T19:00:00Z,24.6280,-81.1120,48.5,4.6,70.0,5.7,'1111122,1111122,1111122' 
NDBC,ioos:station:NOAA.NDBC:SMKF1:1,2013-09-11T20:00:00Z,24.6280,-81.1120,48.5,4.1,70.0,4.6,'1111122,1111122,1111122' 
NDBC,ioos:station:NOAA.NDBC:SMKF1:1,2013-09-11T21:00:00Z,24.6280,-81.1120,48.5,2.6,110.0,3.1,'1111122,1111122,1111122' 
NDBC,ioos:station:NOAA.NDBC:SMKF1:1,2013-09-11T22:00:00Z,24.6280,-81.1120,48.5,4.6,80.0,5.1,'1111122,1111122,1111122' 
NDBC,ioos:station:NOAA.NDBC:SMKF1:1,2013-09-11T23:00:00Z,24.6280,-81.1120,48.5,3.1,60.0,4.6,'1111122,1111122,1111122' 
NDBC,ioos:station:NOAA.NDBC:SMKF1:1,2013-09-12T00:00:00Z,24.6280,-81.1120,48.5,2.6,60.0,3.6,'1111122,1111122,1111122' 
NDBC,ioos:station:NOAA.NDBC:SMKF1:1,2013-09-12T01:00:00Z,24.6280,-81.1120,48.5,2.1,40.0,3.1,'1111122,1111122,1111122' 
NDBC,ioos:station:NOAA.NDBC:SMKF1:1,2013-09-12T02:00:00Z,24.6280,-81.1120,48.5,2.6,50.0,4.1,'1111122,1111122,1111122' 
NDBC,ioos:station:NOAA.NDBC:SMKF1:1,2013-09-12T03:00:00Z,24.6280,-81.1120,48.5,2.1,50.0,3.1,'1111122,1111122,1111122' 
NDBC,ioos:station:NOAA.NDBC:SMKF1:1,2013-09-12T04:00:00Z,24.6280,-81.1120,48.5,2.1,50.0,3.1,'1111122,1111122,1111122' 
NDBC,ioos:station:NOAA.NDBC:SMKF1:1,2013-09-12T05:00:00Z,24.6280,-81.1120,48.5,2.6,60.0,4.1,'1111122,1111122,1111122' 
NDBC,ioos:station:NOAA.NDBC:SMKF1:1,2013-09-12T06:00:00Z,24.6280,-81.1120,48.5,2.6,60.0,4.1,'1111122,1111122,1111122' 
NDBC,ioos:station:NOAA.NDBC:SMKF1:1,2013-09-12T07:00:00Z,24.6280,-81.1120,48.5,2.1,60.0,3.6,'1111122,1111122,1111122' 
NDBC,ioos:station:NOAA.NDBC:SMKF1:1,2013-09-12T08:00:00Z,24.6280,-81.1120,48.5,3.1,60.0,4.1,'1111122,1111122,1111122' 
NDBC,ioos:station:NOAA.NDBC:SMKF1:1,2013-09-12T09:00:00Z,24.6280,-81.1120,48.5,2.1,40.0,3.1,'1111122,1111122,1111122' 
NDBC,ioos:station:NOAA.NDBC:SMKF1:1,2013-09-12T10:00:00Z,24.6280,-81.1120,48.5,2.1,40.0,3.1,'1111122,1111122,1111122' 
NDBC,ioos:station:NOAA.NDBC:SMKF1:1,2013-09-12T11:00:00Z,24.6280,-81.1120,48.5,1.5,40.0,2.1,'1111122,1111122,1111122' 
NDBC,ioos:station:NOAA.NDBC:SMKF1:1,2013-09-12T12:00:00Z,24.6280,-81.1120,48.5,1.5,30.0,3.1,'1111122,1111122,1111122' 
NDBC,ioos:station:NOAA.NDBC:SMKF1:1,2013-09-12T13:00:00Z,24.6280,-81.1120,48.5,2.6,50.0,3.6,'1111122,1111122,1111122' 
NDBC,ioos:station:NOAA.NDBC:SMKF1:1,2013-09-12T14:00:00Z,24.6280,-81.1120,48.5,2.6,50.0,3.6,'1111122,1111122,1111122' 